Location: Dumpton Point
(51.3500°N, 1.4433°E)
Time: 01:56:01
(UTC+00:00)

MOS 1 Rocket - Pass Details

Date: 09 April 2020
Orbit: 615 x 830 km, 97.4° (Epoch: 24 May)

Event Time Altitude Azimuth Distance (km) Brightness Sun altitude
Rises 20:52:30 0° 10° (N) 3,338 7.3 -18.8°
Reaches altitude 10° 20:54:53 10° 6° (N) 2,421 6.5 -19.1°
Maximum altitude 21:00:08 55° 290° (WNW) 996 4.4 -19.7°
Drops below altitude 10° 21:05:25 10° 214° (SW) 2,432 6.0 -20.3°
Sets 21:07:48 0° 210° (SSW) 3,354 6.7 -20.6°
